Time,TemperatureF,DewpointF,PressureIn,WindDirection,WindDirectionDegrees,WindSpeedMPH,WindSpeedGustMPH,Humidity,HourlyPrecipIn,Conditions,Clouds,dailyrainin,SolarRadiationWatts/m^2,SoftwareType,DateUTC
2013-04-08 00:23:00,64.0,-18.0,-100.00,ESE,110,0.0,0.0,3,0.00,,,0.00,0.000000,,2013-04-08 10:23:00,
2013-04-08 00:32:00,64.0,-18.0,-100.00,ESE,110,0.0,0.0,3,0.00,,,0.00,0.000000,,2013-04-08 10:32:00,
2013-04-08 00:42:00,64.0,-18.0,-100.00,ESE,110,0.0,0.0,3,0.00,,,0.00,0.000000,,2013-04-08 10:42:00,
2013-04-08 00:51:00,63.0,-9.0,-100.00,East,92,0.0,0.0,5,0.00,,,0.00,0.000000,,2013-04-08 10:51:00,
2013-04-08 01:12:00,63.0,-9.0,-100.00,East,92,0.0,0.0,5,0.00,,,0.00,0.000000,,2013-04-08 11:12:00,
2013-04-08 01:22:00,63.0,-9.0,-100.00,East,92,0.0,0.0,5,0.00,,,0.00,0.000000,,2013-04-08 11:22:00,
2013-04-08 01:32:00,63.0,-9.0,-100.00,East,92,0.0,0.0,5,0.00,,,0.00,0.000000,,2013-04-08 11:32:00,
2013-04-08 01:42:00,63.0,-9.0,-100.00,East,92,0.0,0.0,5,0.00,,,0.00,0.000000,,2013-04-08 11:42:00,
2013-04-08 01:51:00,65.0,-8.0,-100.00,East,85,0.0,2.0,5,0.00,,,0.00,0.000000,,2013-04-08 11:51:00,
2013-04-08 02:22:00,65.0,-8.0,-100.00,East,85,0.0,2.0,5,0.00,,,0.00,0.000000,,2013-04-08 12:22:00,
2013-04-08 02:32:00,65.0,-8.0,-100.00,East,85,0.0,2.0,5,0.00,,,0.00,0.000000,,2013-04-08 12:32:00,
2013-04-08 02:42:00,65.0,-8.0,-100.00,East,85,0.0,2.0,5,0.00,,,0.00,0.000000,,2013-04-08 12:42:00,
2013-04-08 02:51:00,64.0,-13.0,-100.00,East,87,0.0,0.0,4,0.00,,,0.00,0.000000,,2013-04-08 12:51:00,
2013-04-08 03:22:00,64.0,-13.0,-100.00,East,87,0.0,0.0,4,0.00,,,0.00,0.000000,,2013-04-08 13:22:00,
2013-04-08 03:32:00,64.0,-13.0,-100.00,East,87,0.0,0.0,4,0.00,,,0.00,0.000000,,2013-04-08 13:32:00,
2013-04-08 03:42:00,64.0,-13.0,-100.00,East,87,0.0,0.0,4,0.00,,,0.00,0.000000,,2013-04-08 13:42:00,
2013-04-08 03:51:00,63.0,-2.0,-100.00,NE,47,0.0,3.0,7,0.00,,,0.00,0.000000,,2013-04-08 13:51:00,
2013-04-08 04:22:00,63.0,-2.0,-100.00,NE,47,0.0,3.0,7,0.00,,,0.00,0.000000,,2013-04-08 14:22:00,
2013-04-08 04:32:00,63.0,-2.0,-100.00,NE,47,0.0,3.0,7,0.00,,,0.00,0.000000,,2013-04-08 14:32:00,
2013-04-08 04:42:00,63.0,-2.0,-100.00,NE,47,0.0,3.0,7,0.00,,,0.00,0.000000,,2013-04-08 14:42:00,
2013-04-08 04:51:00,63.0,-2.0,-100.00,NNE,25,1.0,3.0,7,0.00,,,0.00,0.000000,,2013-04-08 14:51:00,
2013-04-08 05:12:00,63.0,-2.0,-100.00,NNE,25,1.0,3.0,7,0.00,,,0.00,0.000000,,2013-04-08 15:12:00,
2013-04-08 05:22:00,63.0,-2.0,-100.00,NNE,25,1.0,3.0,7,0.00,,,0.00,0.000000,,2013-04-08 15:22:00,
2013-04-08 05:33:00,63.0,-2.0,-100.00,NNE,25,1.0,3.0,7,0.00,,,0.00,0.000000,,2013-04-08 15:33:00,
2013-04-08 05:42:00,63.0,-2.0,-100.00,NNE,25,1.0,3.0,7,0.00,,,0.00,0.000000,,2013-04-08 15:42:00,
2013-04-08 05:51:00,63.0,-2.0,-100.00,West,279,0.0,6.0,7,0.00,,,0.00,0.000000,,2013-04-08 15:51:00,
2013-04-08 06:22:00,63.0,-2.0,-100.00,West,279,0.0,6.0,7,0.00,,,0.00,0.000000,,2013-04-08 16:22:00,
2013-04-08 06:32:00,63.0,-2.0,-100.00,West,279,0.0,6.0,7,0.00,,,0.00,0.000000,,2013-04-08 16:32:00,
2013-04-08 06:42:00,63.0,-2.0,-100.00,West,279,0.0,6.0,7,0.00,,,0.00,0.000000,,2013-04-08 16:42:00,
2013-04-08 06:51:00,64.0,-1.0,-100.00,SE,132,0.0,0.0,7,0.00,,,0.00,8.000000,,2013-04-08 16:51:00,
2013-04-08 07:12:00,64.0,-1.0,-100.00,SE,132,0.0,0.0,7,0.00,,,0.00,8.000000,,2013-04-08 17:12:00,
2013-04-08 07:22:00,64.0,-1.0,-100.00,SE,132,0.0,0.0,7,0.00,,,0.00,8.000000,,2013-04-08 17:22:00,
2013-04-08 07:32:00,64.0,-1.0,-100.00,SE,132,0.0,0.0,7,0.00,,,0.00,8.000000,,2013-04-08 17:32:00,
2013-04-08 07:43:00,64.0,-1.0,-100.00,SE,132,0.0,0.0,7,0.00,,,0.00,8.000000,,2013-04-08 17:43:00,
2013-04-08 07:51:00,67.0,-11.0,-100.00,NNW,335,1.0,5.0,4,0.00,,,0.00,59.000000,,2013-04-08 17:51:00,
2013-04-08 08:12:00,67.0,-11.0,-100.00,NNW,335,1.0,5.0,4,0.00,,,0.00,59.000000,,2013-04-08 18:12:00,
2013-04-08 08:22:00,67.0,-11.0,-100.00,NNW,335,1.0,5.0,4,0.00,,,0.00,59.000000,,2013-04-08 18:22:00,
2013-04-08 08:32:00,67.0,-11.0,-100.00,NNW,335,1.0,5.0,4,0.00,,,0.00,59.000000,,2013-04-08 18:32:00,
2013-04-08 08:42:00,67.0,-11.0,-100.00,NNW,335,1.0,5.0,4,0.00,,,0.00,59.000000,,2013-04-08 18:42:00,
2013-04-08 08:51:00,70.0,-27.0,-100.00,NNE,32,3.0,5.0,0,0.00,,,0.00,155.000000,,2013-04-08 18:51:00,
2013-04-08 09:12:00,70.0,-27.0,-100.00,NNE,32,3.0,5.0,0,0.00,,,0.00,155.000000,,2013-04-08 19:12:00,
2013-04-08 09:22:00,70.0,-27.0,-100.00,NNE,32,3.0,5.0,0,0.00,,,0.00,155.000000,,2013-04-08 19:22:00,
2013-04-08 09:33:00,70.0,-27.0,-100.00,NNE,32,3.0,5.0,0,0.00,,,0.00,155.000000,,2013-04-08 19:33:00,
2013-04-08 09:42:00,70.0,-27.0,-100.00,NNE,32,3.0,5.0,0,0.00,,,0.00,155.000000,,2013-04-08 19:42:00,
2013-04-08 09:51:00,74.0,-25.0,-100.00,NE,50,3.0,10.0,0,0.00,,,0.00,535.000000,,2013-04-08 19:51:00,
2013-04-08 10:12:00,74.0,-25.0,-100.00,NE,50,3.0,10.0,0,0.00,,,0.00,535.000000,,2013-04-08 20:12:00,
2013-04-08 10:22:00,74.0,-25.0,-100.00,NE,50,3.0,10.0,0,0.00,,,0.00,535.000000,,2013-04-08 20:22:00,
2013-04-08 10:32:00,74.0,-25.0,-100.00,NE,50,3.0,10.0,0,0.00,,,0.00,535.000000,,2013-04-08 20:32:00,
2013-04-08 10:42:00,74.0,-25.0,-100.00,NE,50,3.0,10.0,0,0.00,,,0.00,535.000000,,2013-04-08 20:42:00,
2013-04-08 10:51:00,76.0,-23.0,-100.00,NE,38,2.0,8.0,0,0.00,,,0.00,642.000000,,2013-04-08 20:51:00,
2013-04-08 11:22:00,76.0,-23.0,-100.00,NE,38,2.0,8.0,0,0.00,,,0.00,642.000000,,2013-04-08 21:22:00,
2013-04-08 11:32:00,76.0,-23.0,-100.00,NE,38,2.0,8.0,0,0.00,,,0.00,642.000000,,2013-04-08 21:32:00,
2013-04-08 11:43:00,76.0,-23.0,-100.00,NE,38,2.0,8.0,0,0.00,,,0.00,642.000000,,2013-04-08 21:43:00,
2013-04-08 11:51:00,76.0,-23.0,-100.00,ENE,69,2.0,8.0,0,0.00,,,0.00,507.000000,,2013-04-08 21:51:00,
2013-04-08 12:13:00,76.0,-23.0,-100.00,ENE,69,2.0,8.0,0,0.00,,,0.00,507.000000,,2013-04-08 22:13:00,
2013-04-08 12:22:00,76.0,-23.0,-100.00,ENE,69,2.0,8.0,0,0.00,,,0.00,507.000000,,2013-04-08 22:22:00,
2013-04-08 12:32:00,76.0,-23.0,-100.00,ENE,69,2.0,8.0,0,0.00,,,0.00,507.000000,,2013-04-08 22:32:00,
2013-04-08 12:42:00,76.0,-23.0,-100.00,ENE,69,2.0,8.0,0,0.00,,,0.00,507.000000,,2013-04-08 22:42:00,
2013-04-08 12:51:00,76.0,-23.0,-100.00,NE,48,1.0,6.0,0,0.00,,,0.00,608.000000,,2013-04-08 22:51:00,
2013-04-08 13:12:00,76.0,-23.0,-100.00,NE,48,1.0,6.0,0,0.00,,,0.00,608.000000,,2013-04-08 23:12:00,
2013-04-08 13:22:00,76.0,-23.0,-100.00,NE,48,1.0,6.0,0,0.00,,,0.00,608.000000,,2013-04-08 23:22:00,
2013-04-08 13:32:00,76.0,-23.0,-100.00,NE,48,1.0,6.0,0,0.00,,,0.00,608.000000,,2013-04-08 23:32:00,
2013-04-08 13:42:00,76.0,-23.0,-100.00,NE,48,1.0,6.0,0,0.00,,,0.00,608.000000,,2013-04-08 23:42:00,
2013-04-08 13:51:00,80.0,-21.0,-100.00,NE,53,3.0,9.0,0,0.00,,,0.00,683.000000,,2013-04-08 23:51:00,
2013-04-08 14:12:00,80.0,-21.0,-100.00,NE,53,3.0,9.0,0,0.00,,,0.00,683.000000,,2013-04-09 00:12:00,
2013-04-08 14:32:00,80.0,-21.0,-100.00,NE,53,3.0,9.0,0,0.00,,,0.00,683.000000,,2013-04-09 00:32:00,
2013-04-08 14:42:00,80.0,-21.0,-100.00,NE,53,3.0,9.0,0,0.00,,,0.00,683.000000,,2013-04-09 00:42:00,
2013-04-08 14:51:00,78.0,-22.0,-100.00,NE,55,2.0,9.0,0,0.00,,,0.00,707.000000,,2013-04-09 00:51:00,
2013-04-08 15:12:00,78.0,-22.0,-100.00,NE,55,2.0,9.0,0,0.00,,,0.00,707.000000,,2013-04-09 01:12:00,
2013-04-08 15:22:00,78.0,-22.0,-100.00,NE,55,2.0,9.0,0,0.00,,,0.00,707.000000,,2013-04-09 01:22:00,
2013-04-08 15:32:00,78.0,-22.0,-100.00,NE,55,2.0,9.0,0,0.00,,,0.00,707.000000,,2013-04-09 01:32:00,
2013-04-08 15:42:00,78.0,-22.0,-100.00,NE,55,2.0,9.0,0,0.00,,,0.00,707.000000,,2013-04-09 01:42:00,
2013-04-08 15:51:00,78.0,-22.0,-100.00,NE,42,3.0,8.0,0,0.00,,,0.00,743.000000,,2013-04-09 01:51:00,
2013-04-08 16:22:00,78.0,-22.0,-100.00,NE,42,3.0,8.0,0,0.00,,,0.00,743.000000,,2013-04-09 02:22:00,
2013-04-08 16:32:00,78.0,-22.0,-100.00,NE,42,3.0,8.0,0,0.00,,,0.00,743.000000,,2013-04-09 02:32:00,
2013-04-08 16:42:00,78.0,-22.0,-100.00,NE,42,3.0,8.0,0,0.00,,,0.00,743.000000,,2013-04-09 02:42:00,
2013-04-08 16:51:00,75.0,-24.0,-100.00,NE,41,2.0,5.0,0,0.00,,,-99.99,308.000000,,2013-04-09 02:51:00,
2013-04-08 17:12:00,75.0,-24.0,-100.00,NE,41,2.0,5.0,0,0.00,,,-99.99,308.000000,,2013-04-09 03:12:00,
2013-04-08 17:21:00,75.0,-24.0,-100.00,NE,41,2.0,5.0,0,0.00,,,-99.99,308.000000,,2013-04-09 03:21:00,
2013-04-08 17:32:00,75.0,-24.0,-100.00,NE,41,2.0,5.0,0,0.00,,,-99.99,308.000000,,2013-04-09 03:32:00,
2013-04-08 17:42:00,75.0,-24.0,-100.00,NE,41,2.0,5.0,0,0.00,,,-99.99,308.000000,,2013-04-09 03:42:00,
2013-04-08 17:51:00,71.0,-26.0,-100.00,ENE,60,1.0,5.0,0,0.00,,,0.00,71.000000,,2013-04-09 03:51:00,
2013-04-08 18:13:00,71.0,-26.0,-100.00,ENE,60,1.0,5.0,0,0.00,,,0.00,71.000000,,2013-04-09 04:13:00,
2013-04-08 18:23:00,71.0,-26.0,-100.00,ENE,60,1.0,5.0,0,0.00,,,0.00,71.000000,,2013-04-09 04:23:00,
2013-04-08 18:32:00,71.0,-26.0,-100.00,ENE,60,1.0,5.0,0,0.00,,,0.00,71.000000,,2013-04-09 04:32:00,
2013-04-08 18:42:00,71.0,-26.0,-100.00,ENE,60,1.0,5.0,0,0.00,,,0.00,71.000000,,2013-04-09 04:42:00,
2013-04-08 18:51:00,67.0,-29.0,-100.00,WNW,297,0.0,5.0,0,0.00,,,0.00,11.000000,,2013-04-09 04:51:00,
2013-04-08 19:12:00,67.0,-29.0,-100.00,WNW,297,0.0,5.0,0,0.00,,,0.00,11.000000,,2013-04-09 05:12:00,
2013-04-08 19:22:00,67.0,-29.0,-100.00,WNW,297,0.0,5.0,0,0.00,,,0.00,11.000000,,2013-04-09 05:22:00,
2013-04-08 19:32:00,67.0,-29.0,-100.00,WNW,297,0.0,5.0,0,0.00,,,0.00,11.000000,,2013-04-09 05:32:00,
2013-04-08 19:42:00,67.0,-29.0,-100.00,WNW,297,0.0,5.0,0,0.00,,,0.00,11.000000,,2013-04-09 05:42:00,
2013-04-08 19:51:00,64.0,-31.0,-100.00,SSE,155,0.0,3.0,0,0.00,,,0.00,0.000000,,2013-04-09 05:51:00,
2013-04-08 20:12:00,64.0,-31.0,-100.00,SSE,155,0.0,3.0,0,0.00,,,0.00,0.000000,,2013-04-09 06:12:00,
2013-04-08 20:22:00,64.0,-31.0,-100.00,SSE,155,0.0,3.0,0,0.00,,,0.00,0.000000,,2013-04-09 06:22:00,
2013-04-08 20:32:00,64.0,-31.0,-100.00,SSE,155,0.0,3.0,0,0.00,,,0.00,0.000000,,2013-04-09 06:32:00,
2013-04-08 20:42:00,64.0,-31.0,-100.00,SSE,155,0.0,3.0,0,0.00,,,0.00,0.000000,,2013-04-09 06:42:00,
2013-04-08 20:51:00,64.0,-31.0,-100.00,South,186,0.0,0.0,0,0.00,,,0.00,0.000000,,2013-04-09 06:51:00,
2013-04-08 21:12:00,64.0,-31.0,-100.00,South,186,0.0,0.0,0,0.00,,,0.00,0.000000,,2013-04-09 07:12:00,
2013-04-08 21:22:00,64.0,-31.0,-100.00,South,186,0.0,0.0,0,0.00,,,0.00,0.000000,,2013-04-09 07:22:00,
2013-04-08 21:32:00,64.0,-31.0,-100.00,South,186,0.0,0.0,0,0.00,,,0.00,0.000000,,2013-04-09 07:32:00,
2013-04-08 21:42:00,64.0,-31.0,-100.00,South,186,0.0,0.0,0,0.00,,,0.00,0.000000,,2013-04-09 07:42:00,
2013-04-08 21:51:00,64.0,-31.0,-100.00,NE,39,0.0,3.0,0,0.00,,,-99.99,0.000000,,2013-04-09 07:51:00,
2013-04-08 22:22:00,64.0,-31.0,-100.00,NE,39,0.0,3.0,0,0.00,,,-99.99,0.000000,,2013-04-09 08:22:00,
2013-04-08 22:32:00,64.0,-31.0,-100.00,NE,39,0.0,3.0,0,0.00,,,-99.99,0.000000,,2013-04-09 08:32:00,
2013-04-08 22:42:00,64.0,-31.0,-100.00,NE,39,0.0,3.0,0,0.00,,,-99.99,0.000000,,2013-04-09 08:42:00,
2013-04-08 22:51:00,63.0,-31.0,-100.00,East,96,0.0,0.0,0,0.00,,,0.00,0.000000,,2013-04-09 08:51:00,
2013-04-08 23:22:00,63.0,-31.0,-100.00,East,96,0.0,0.0,0,0.00,,,0.00,0.000000,,2013-04-09 09:22:00,
2013-04-08 23:32:00,63.0,-31.0,-100.00,East,96,0.0,0.0,0,0.00,,,0.00,0.000000,,2013-04-09 09:32:00,
2013-04-08 23:43:00,63.0,-31.0,-100.00,East,96,0.0,0.0,0,0.00,,,0.00,0.000000,,2013-04-09 09:43:00,
2013-04-08 23:51:00,63.0,-31.0,-100.00,North,5,0.0,0.0,0,0.00,,,0.00,0.000000,,2013-04-09 09:51:00,